Bookmark and Share
Track history (hours):
 

Nanticoke

Last reported at 2014-Apr-20 01:08 UTC. Time now 2014-Apr-24 02:08 UTC.
Position N 45°33' W 086°22'.

Length 222 m; draft 7.8 m.

Type: Cargo ship. MMSI: 316043000.

NotesDate/timePositionNaut miles runAvg speedWind from/ knotsBaromVisibWave heightAir tempDewpointWater temp
2014-Apr-20 01:08N 45°33' W 086°22'712.1
2014-Apr-20 00:31N 45°37' W 086°13'1212.0
2014-Apr-19 23:33N 45°43' W 085°59'1010.2
2014-Apr-19 22:33N 45°48' W 085°46'10 9.8
2014-Apr-19 21:33N 45°54' W 085°35'4 4.1
2014-Apr-19 20:33N 45°54' W 085°29'6 6.0
2014-Apr-19 19:33N 45°55' W 085°20'1010.4
2014-Apr-19 18:33N 45°52' W 085°06'9 9.3
2014-Apr-19 17:33N 45°50' W 084°53'7 7.3
2014-Apr-19 16:33N 45°49' W 084°42'3 3.3
2014-Apr-19 15:33N 45°50' W 084°38'3 3.0
2014-Apr-19 14:33N 45°51' W 084°34'1 0.8
2014-Apr-19 13:33N 45°51' W 084°33'1 0.6
2014-Apr-19 12:33N 45°51' W 084°32'3 3.1
2014-Apr-19 11:33N 45°51' W 084°28'6 6.0
2014-Apr-19 10:33N 45°50' W 084°19'6 5.7
2014-Apr-19 09:33N 45°48' W 084°11'  
2014-Apr-13 14:30N 44°03' W 076°27'1111.1
2014-Apr-13 13:33N 44°11' W 076°19'97 6.0
2014-Apr-12 21:16N 45°08' W 074°27'8 9.9
2014-Apr-12 20:28N 45°12' W 074°18'8 9.1
2014-Apr-12 19:34N 45°13' W 074°06'8 7.6
2014-Apr-12 18:33N 45°17' W 073°57'2 1.9
2014-Apr-12 17:34N 45°19' W 073°55'0 0.5
2014-Apr-12 16:33N 45°19' W 073°55'2 1.6
2014-Apr-12 15:33N 45°20' W 073°54'9 9.0
2014-Apr-12 14:34N 45°25' W 073°43'5 5.5
2014-Apr-12 13:33N 45°24' W 073°35'1 1.0
2014-Apr-12 12:33N 45°24' W 073°33'3 2.9
2014-Apr-12 11:34N 45°26' W 073°30'4 3.5
2014-Apr-12 10:33N 45°30' W 073°31'3 2.8
2014-Apr-12 09:33N 45°32' W 073°32'2 2.3
2014-Apr-12 08:34N 45°35' W 073°30'5 5.0
2014-Apr-12 07:34N 45°39' W 073°28'9 9.0
2014-Apr-12 06:34N 45°47' W 073°21'9 9.4
2014-Apr-12 05:33N 45°54' W 073°13'20 8.6
2014-Apr-12 03:16N 46°10' W 072°56'710.4
2014-Apr-12 02:34N 46°14' W 072°47'10 9.6
2014-Apr-12 01:34N 46°18' W 072°34'8 7.7
2014-Apr-12 00:33N 46°23' W 072°26'9 9.1
2014-Apr-11 23:34N 46°28' W 072°15'9 8.2
2014-Apr-11 22:26N 46°34' W 072°05'7 8.4
2014-Apr-11 21:34N 46°38' W 071°56'  

Dump ship's entire track history

sailing weather and tide predictions

Nanticoke — VCQL — position and weather